User: anonymous   Login
Location: UBC Liquid-Mirror Observatory
(49.2876°N, 122.5728°W)
Time: 07:03:13
(UTC-07:00)
Language:

Cosmos 1315 - Orbit

View from above orbital plane
View from above orbital plane
View from above satellite
View from above satellite

Ground track
Ground track

The orbit data is extracted from the following two-line orbital elements,

1 12903U 81103A   15123.51168988  .00068525  00000-0  45918-3 0  9992
2 12903 081.1205 111.4476 0005308 156.4290 341.5760 15.74987244840178
Epoch (UTC): 03 May 2015 12:16:50
Eccentricity: 0.0005308
inclination: 81.1205°
perigee height: 341 km
apogee height: 348 km
right ascension of ascending node: 111.4476°
argument of perigee: 156.4290°
revolutions per day: 15.74987244
mean anomaly at epoch: 341.5760°
orbit number at epoch: 84017

The dashed part of the orbit path shows where the satellite is in the earth's shadow,  

DLR